When you browse on this site, cookies collect data to enhance your experience and personalize the content and advertising you see.
Visit our Privacy Policy to learn more. By continuing to use the site, you agree to this use of cookies and data.
EN

Hourly Weather Canecas

Today, 3 August, Monday

Time Temperature Precipitation Wind Pressure Humidity
00:00 +17°C° 0 mm 8 mps 743 mmHg 73%
01:00 +17°C° 0 mm 8 mps 743 mmHg 72%
02:00 +17°C° 0 mm 9 mps 743 mmHg 72%
03:00 +17°C° 0 mm 8 mps 743 mmHg 72%
04:00 +17°C° 0 mm 8 mps 743 mmHg 72%
05:00 +17°C° 0 mm 7 mps 743 mmHg 74%
06:00 +18°C° 0 mm 7 mps 743 mmHg 71%
07:00 +21°C° 0 mm 8 mps 743 mmHg 68%
08:00 +22°C° 0 mm 9 mps 743 mmHg 66%
09:00 +24°C° 0 mm 8 mps 743 mmHg 62%
10:00 +26°C° 0 mm 8 mps 743 mmHg 58%
11:00 +27°C° 0 mm 8 mps 743 mmHg 53%
12:00 +27°C° 0 mm 8 mps 743 mmHg 54%
13:00 +27°C° 0 mm 9 mps 742 mmHg 55%
14:00 +27°C° 0 mm 9 mps 742 mmHg 55%
15:00 +26°C° 0 mm 9 mps 742 mmHg 59%
16:00 +23°C° 0 mm 9 mps 742 mmHg 63%
17:00 +22°C° 0 mm 9 mps 741 mmHg 67%
18:00 +21°C° 0 mm 9 mps 741 mmHg 72%
19:00 +19°C° 0 mm 9 mps 742 mmHg 77%
20:00 +17°C° 0 mm 9 mps 742 mmHg 82%
21:00 +17°C° 0 mm 8 mps 742 mmHg 83%
22:00 +17°C° 0 mm 8 mps 741 mmHg 84%
23:00 +17°C° 0 mm 8 mps 741 mmHg 85%

Tomorrow, 4 August, Tuesday

Time Temperature Precipitation Wind Pressure Humidity
00:00 +17°C° 0 mm 8 mps 741 mmHg 86%
01:00 +17°C° 0 mm 8 mps 741 mmHg 88%
02:00 +17°C° 0 mm 7 mps 740 mmHg 89%
03:00 +16°C° 0 mm 7 mps 740 mmHg 89%
04:00 +16°C° 0 mm 7 mps 740 mmHg 89%
05:00 +16°C° 0 mm 7 mps 740 mmHg 90%
06:00 +18°C° 0 mm 7 mps 740 mmHg 80%
07:00 +21°C° 0 mm 7 mps 740 mmHg 71%
08:00 +23°C° 0 mm 7 mps 740 mmHg 62%
09:00 +26°C° 0 mm 7 mps 740 mmHg 54%
10:00 +28°C° 0 mm 7 mps 740 mmHg 47%
11:00 +30°C° 0 mm 6 mps 740 mmHg 39%
12:00 +30°C° 0 mm 7 mps 739 mmHg 39%
13:00 +32°C° 0 mm 7 mps 739 mmHg 39%
14:00 +32°C° 0 mm 8 mps 739 mmHg 39%
15:00 +29°C° 0 mm 8 mps 739 mmHg 43%
16:00 +27°C° 0 mm 8 mps 738 mmHg 48%
17:00 +26°C° 0 mm 8 mps 738 mmHg 52%
18:00 +23°C° 0 mm 8 mps 738 mmHg 62%
19:00 +21°C° 0 mm 7 mps 739 mmHg 71%
20:00 +18°C° 0 mm 7 mps 739 mmHg 80%
21:00 +17°C° 0 mm 6 mps 739 mmHg 82%
22:00 +17°C° 0 mm 6 mps 739 mmHg 85%
23:00 +17°C° 0 mm 5 mps 738 mmHg 87%

Day after tomorrow, 5 August, Wednesday

Time Temperature Precipitation Wind Pressure Humidity
00:00 +17°C° 0 mm 5 mps 738 mmHg 88%
01:00 +17°C° 0 mm 6 mps 738 mmHg 89%
02:00 +16°C° 0 mm 6 mps 738 mmHg 90%
03:00 +16°C° 0 mm 5 mps 738 mmHg 90%
04:00 +16°C° 0 mm 5 mps 738 mmHg 90%
05:00 +16°C° 0 mm 5 mps 738 mmHg 90%
06:00 +19°C° 0 mm 4 mps 738 mmHg 80%
07:00 +21°C° 0 mm 4 mps 738 mmHg 69%
08:00 +25°C° 0 mm 4 mps 739 mmHg 59%
09:00 +27°C° 0 mm 4 mps 739 mmHg 52%
10:00 +29°C° 0 mm 5 mps 739 mmHg 46%
11:00 +32°C° 0 mm 5 mps 739 mmHg 40%
12:00 +32°C° 0 mm 5 mps 738 mmHg 40%
13:00 +32°C° 0 mm 6 mps 738 mmHg 40%
14:00 +32°C° 0 mm 7 mps 738 mmHg 40%
15:00 +29°C° 0 mm 7 mps 738 mmHg 43%
16:00 +28°C° 0 mm 7 mps 738 mmHg 46%
17:00 +26°C° 0 mm 7 mps 738 mmHg 49%
18:00 +23°C° 0 mm 7 mps 738 mmHg 57%
19:00 +22°C° 0 mm 7 mps 738 mmHg 65%
20:00 +20°C° 0 mm 6 mps 739 mmHg 73%
21:00 +19°C° 0 mm 6 mps 738 mmHg 75%
22:00 +19°C° 0 mm 6 mps 738 mmHg 76%
23:00 +19°C° 0 mm 5 mps 738 mmHg 78%

6 August, Thursday

Time Temperature Precipitation Wind Pressure Humidity
00:00 +17°C° 0 mm 5 mps 738 mmHg 80%
01:00 +18°C° 0 mm 4 mps 738 mmHg 83%
02:00 +18°C° 0 mm 4 mps 738 mmHg 85%
03:00 +18°C° 0 mm 4 mps 738 mmHg 87%
04:00 +18°C° 0 mm 3 mps 738 mmHg 88%
05:00 +18°C° 0 mm 3 mps 738 mmHg 89%
06:00 +20°C° 0 mm 3 mps 739 mmHg 77%
07:00 +22°C° 0 mm 4 mps 739 mmHg 65%
08:00 +26°C° 0 mm 4 mps 739 mmHg 53%
09:00 +28°C° 0 mm 4 mps 739 mmHg 47%
10:00 +30°C° 0 mm 4 mps 740 mmHg 41%
11:00 +33°C° 0 mm 5 mps 740 mmHg 35%
12:00 +33°C° 0 mm 5 mps 739 mmHg 35%
13:00 +33°C° 0 mm 6 mps 739 mmHg 36%
14:00 +33°C° 0 mm 6 mps 739 mmHg 36%
15:00 +32°C° 0 mm 6 mps 739 mmHg 40%
16:00 +29°C° 0 mm 7 mps 739 mmHg 44%
17:00 +27°C° 0 mm 7 mps 739 mmHg 48%
18:00 +24°C° 0 mm 6 mps 739 mmHg 57%
19:00 +22°C° 0 mm 5 mps 739 mmHg 65%
20:00 +20°C° 0 mm 5 mps 740 mmHg 74%
21:00 +20°C° 0 mm 4 mps 740 mmHg 77%
22:00 +20°C° 0 mm 4 mps 740 mmHg 81%
23:00 +19°C° 0 mm 4 mps 740 mmHg 85%

7 August, Friday

Time Temperature Precipitation Wind Pressure Humidity
00:00 +19°C° 0 mm 4 mps 740 mmHg 87%
01:00 +19°C° 0 mm 4 mps 740 mmHg 89%
02:00 +18°C° 0 mm 4 mps 740 mmHg 91%
03:00 +18°C° 0 mm 3 mps 740 mmHg 91%
04:00 +18°C° 0 mm 3 mps 741 mmHg 92%
05:00 +18°C° 0 mm 3 mps 741 mmHg 93%
06:00 +20°C° 0 mm 3 mps 741 mmHg 82%
07:00 +22°C° 0 mm 3 mps 741 mmHg 71%
08:00 +25°C° 0 mm 3 mps 742 mmHg 61%
09:00 +27°C° 0 mm 3 mps 742 mmHg 54%
10:00 +29°C° 0 mm 4 mps 742 mmHg 47%
11:00 +32°C° 0 mm 4 mps 742 mmHg 40%
12:00 +32°C° 0 mm 5 mps 742 mmHg 40%
13:00 +32°C° 0 mm 6 mps 742 mmHg 41%
14:00 +30°C° 0 mm 7 mps 742 mmHg 41%
15:00 +29°C° 0 mm 7 mps 742 mmHg 46%
16:00 +27°C° 0 mm 7 mps 742 mmHg 52%
17:00 +26°C° 0 mm 8 mps 742 mmHg 57%
18:00 +23°C° 0 mm 7 mps 742 mmHg 66%
19:00 +21°C° 0 mm 7 mps 743 mmHg 75%
20:00 +19°C° 0 mm 6 mps 743 mmHg 84%
21:00 +19°C° 0 mm 6 mps 743 mmHg 86%
22:00 +17°C° 0 mm 5 mps 743 mmHg 88%
23:00 +17°C° 0 mm 5 mps 743 mmHg 91%

8 August, Saturday

Time Temperature Precipitation Wind Pressure Humidity
00:00 +18°C° 0 mm 4 mps 743 mmHg 91%
01:00 +18°C° 0 mm 4 mps 743 mmHg 92%
02:00 +17°C° 0 mm 3 mps 743 mmHg 93%
03:00 +18°C° 0 mm 4 mps 743 mmHg 93%
04:00 +18°C° 0 mm 4 mps 743 mmHg 92%
05:00 +18°C° 0 mm 4 mps 743 mmHg 92%
06:00 +19°C° 0 mm 5 mps 743 mmHg 82%
07:00 +21°C° 0 mm 5 mps 743 mmHg 72%
08:00 +23°C° 0 mm 6 mps 744 mmHg 62%
09:00 +24°C° 0 mm 6 mps 744 mmHg 55%
10:00 +27°C° 0 mm 6 mps 744 mmHg 49%
11:00 +28°C° 0 mm 6 mps 744 mmHg 43%
12:00 +28°C° 0 mm 7 mps 743 mmHg 43%
13:00 +28°C° 0 mm 7 mps 743 mmHg 44%
14:00 +28°C° 0 mm 7 mps 743 mmHg 44%
15:00 +27°C° 0 mm 7 mps 743 mmHg 50%
16:00 +24°C° 0 mm 7 mps 743 mmHg 55%
17:00 +23°C° 0 mm 8 mps 742 mmHg 60%
18:00 +22°C° 0 mm 7 mps 743 mmHg 68%
19:00 +20°C° 0 mm 7 mps 743 mmHg 76%
20:00 +17°C° 0 mm 6 mps 743 mmHg 85%
21:00 +17°C° 0 mm 6 mps 743 mmHg 86%
22:00 +17°C° 0 mm 6 mps 743 mmHg 88%
23:00 +16°C° 0 mm 5 mps 742 mmHg 90%
Show more